Year,Month,Day,Hour,Minute,Value (Times are PST for temperature in C)
2012,08,01,00,00,14.80
2012,08,01,00,01,14.80
2012,08,01,00,02,14.70
2012,08,01,00,03,14.70
2012,08,01,00,04,14.60
2012,08,01,00,05,14.60
2012,08,01,00,06,14.60
2012,08,01,00,07,14.50
2012,08,01,00,08,14.50
2012,08,01,00,09,14.50
2012,08,01,00,10,14.40
2012,08,01,00,11,14.40
2012,08,01,00,12,14.40
2012,08,01,00,13,14.40
2012,08,01,00,14,14.30
2012,08,01,00,15,14.30
2012,08,01,00,16,14.30
2012,08,01,00,17,14.30
2012,08,01,00,18,14.30
2012,08,01,00,19,14.30
2012,08,01,00,20,14.30
2012,08,01,00,21,14.20
2012,08,01,00,22,14.20
2012,08,01,00,23,14.20
2012,08,01,00,24,14.20
2012,08,01,00,25,14.20
2012,08,01,00,26,14.20
2012,08,01,00,27,14.10
2012,08,01,00,28,14.10
2012,08,01,00,29,14.10
2012,08,01,00,30,14.10
2012,08,01,00,31,14.10
2012,08,01,00,32,14.10
2012,08,01,00,33,14.10
2012,08,01,00,34,14.10
2012,08,01,00,35,14.00
2012,08,01,00,36,14.00
2012,08,01,00,37,14.00
2012,08,01,00,38,14.00
2012,08,01,00,39,14.00
2012,08,01,00,40,14.00
2012,08,01,00,41,14.00
2012,08,01,00,42,14.00
2012,08,01,00,43,14.00
2012,08,01,00,44,14.00
2012,08,01,00,45,14.00
2012,08,01,00,46,14.00
2012,08,01,00,47,14.00
2012,08,01,00,48,14.00
2012,08,01,00,49,14.00
2012,08,01,00,50,14.00
2012,08,01,00,51,14.00
2012,08,01,00,52,14.00
2012,08,01,00,53,14.00
2012,08,01,00,54,14.00
2012,08,01,00,55,14.00
2012,08,01,00,56,14.00
2012,08,01,00,57,14.00
2012,08,01,00,58,14.00
2012,08,01,00,59,14.00
2012,08,01,01,00,13.90
2012,08,01,01,01,13.90
2012,08,01,01,02,13.90
2012,08,01,01,03,13.90
2012,08,01,01,04,13.90
2012,08,01,01,05,13.90
2012,08,01,01,06,13.90
2012,08,01,01,07,13.80
2012,08,01,01,08,13.80
2012,08,01,01,09,13.80
2012,08,01,01,10,13.80
2012,08,01,01,11,13.80
2012,08,01,01,12,13.70
2012,08,01,01,13,13.70
2012,08,01,01,14,13.70
2012,08,01,01,15,13.70
2012,08,01,01,16,13.70
2012,08,01,01,17,13.70
2012,08,01,01,18,13.60
2012,08,01,01,19,13.60
2012,08,01,01,20,13.70
2012,08,01,01,21,13.60
2012,08,01,01,22,13.70
2012,08,01,01,23,13.70
2012,08,01,01,24,13.70
2012,08,01,01,25,13.70
2012,08,01,01,26,13.70
2012,08,01,01,27,13.70
2012,08,01,01,28,13.70
2012,08,01,01,29,13.70
2012,08,01,01,30,13.70
2012,08,01,01,31,13.70
2012,08,01,01,32,13.70
2012,08,01,01,33,13.60
2012,08,01,01,34,13.60
2012,08,01,01,35,13.60
2012,08,01,01,36,13.60
2012,08,01,01,37,13.60
2012,08,01,01,38,13.50
2012,08,01,01,39,13.50
2012,08,01,01,40,13.50
2012,08,01,01,41,13.40
2012,08,01,01,42,13.40
2012,08,01,01,43,13.40
2012,08,01,01,44,13.40
2012,08,01,01,45,13.30
2012,08,01,01,46,13.30
2012,08,01,01,47,13.30
2012,08,01,01,48,13.30
2012,08,01,01,49,13.30
2012,08,01,01,50,13.30
2012,08,01,01,51,13.30
2012,08,01,01,52,13.30
2012,08,01,01,53,13.30
2012,08,01,01,54,13.30
2012,08,01,01,55,13.20
2012,08,01,01,56,13.20
2012,08,01,01,57,13.20
2012,08,01,01,58,13.20
2012,08,01,01,59,13.20
2012,08,01,02,00,13.20
2012,08,01,02,01,13.20
2012,08,01,02,02,13.20
2012,08,01,02,03,13.10
2012,08,01,02,04,13.10
2012,08,01,02,05,13.10
2012,08,01,02,06,13.10
2012,08,01,02,07,13.10
2012,08,01,02,08,13.10
2012,08,01,02,09,13.10
2012,08,01,02,10,13.10
2012,08,01,02,11,13.10
2012,08,01,02,12,13.10
2012,08,01,02,13,13.20
2012,08,01,02,14,13.20
2012,08,01,02,15,13.20
2012,08,01,02,16,13.20
2012,08,01,02,17,13.20
2012,08,01,02,18,13.30
2012,08,01,02,19,13.30
2012,08,01,02,20,13.40
2012,08,01,02,21,13.50
2012,08,01,02,22,13.60
2012,08,01,02,23,13.70
2012,08,01,02,24,13.70
2012,08,01,02,25,13.80
2012,08,01,02,26,13.90
2012,08,01,02,27,13.90
2012,08,01,02,28,14.00
2012,08,01,02,29,14.10
2012,08,01,02,30,14.10
2012,08,01,02,31,14.10
2012,08,01,02,32,14.20
2012,08,01,02,33,14.20
2012,08,01,02,34,14.20
2012,08,01,02,35,14.20
2012,08,01,02,36,14.20
2012,08,01,02,37,14.20
2012,08,01,02,38,14.20
2012,08,01,02,39,14.20
2012,08,01,02,40,14.20
2012,08,01,02,41,14.20
2012,08,01,02,42,14.20
2012,08,01,02,43,14.20
2012,08,01,02,44,14.20
2012,08,01,02,45,14.20
2012,08,01,02,46,14.20
2012,08,01,02,47,14.20
2012,08,01,02,48,14.20
2012,08,01,02,49,14.20
2012,08,01,02,50,14.20
2012,08,01,02,51,14.20
2012,08,01,02,52,14.20
2012,08,01,02,53,14.20
2012,08,01,02,54,14.10
2012,08,01,02,55,14.10
2012,08,01,02,56,14.10
2012,08,01,02,57,14.10
2012,08,01,02,58,14.10
2012,08,01,02,59,14.00
2012,08,01,03,00,14.00
2012,08,01,03,01,13.90
2012,08,01,03,02,13.90
2012,08,01,03,03,13.90
2012,08,01,03,06,13.80
2012,08,01,03,07,13.80
2012,08,01,03,08,13.70
2012,08,01,03,09,13.70
2012,08,01,03,10,13.60
2012,08,01,03,11,13.60
2012,08,01,03,12,13.60
2012,08,01,03,13,13.60
2012,08,01,03,14,13.60
2012,08,01,03,15,13.70
2012,08,01,03,16,13.70
2012,08,01,03,17,13.70
2012,08,01,03,18,13.70
2012,08,01,03,19,13.70
2012,08,01,03,20,13.70
2012,08,01,03,21,13.70
2012,08,01,03,22,13.70
2012,08,01,03,23,13.70
2012,08,01,03,24,13.70
2012,08,01,03,25,13.70
2012,08,01,03,26,13.70
2012,08,01,03,27,13.60
2012,08,01,03,28,13.60
2012,08,01,03,29,13.60
2012,08,01,03,30,13.60
2012,08,01,03,31,13.60
2012,08,01,03,32,13.60
2012,08,01,03,33,13.60
2012,08,01,03,34,13.50
2012,08,01,03,35,13.40
2012,08,01,03,36,13.30
2012,08,01,03,37,13.20
2012,08,01,03,38,13.10
2012,08,01,03,39,13.00
2012,08,01,03,40,13.00
2012,08,01,03,41,12.90
2012,08,01,03,42,12.80
2012,08,01,03,43,12.80
2012,08,01,03,44,12.70
2012,08,01,03,45,12.60
2012,08,01,03,46,12.60
2012,08,01,03,47,12.50
2012,08,01,03,48,12.50
2012,08,01,03,49,12.40
2012,08,01,03,50,12.40
2012,08,01,03,51,12.30
2012,08,01,03,52,12.30
2012,08,01,03,53,12.30
2012,08,01,03,54,12.20
2012,08,01,03,55,12.20
2012,08,01,03,56,12.20
2012,08,01,03,57,12.20
2012,08,01,03,58,12.20
2012,08,01,03,59,12.10
2012,08,01,04,00,12.10
2012,08,01,04,01,12.10
2012,08,01,04,02,12.10
2012,08,01,04,03,12.10
2012,08,01,04,04,12.10
2012,08,01,04,05,12.10
2012,08,01,04,06,12.10
2012,08,01,04,07,12.10
2012,08,01,04,08,12.10
2012,08,01,04,09,12.10
2012,08,01,04,10,12.00
2012,08,01,04,11,12.00
2012,08,01,04,12,12.00
2012,08,01,04,13,12.00
2012,08,01,04,14,12.00
2012,08,01,04,15,12.00
2012,08,01,04,16,12.00
2012,08,01,04,17,12.00
2012,08,01,04,18,11.90
2012,08,01,04,19,11.90
2012,08,01,04,20,11.90
2012,08,01,04,21,11.90
2012,08,01,04,22,11.90
2012,08,01,04,23,11.90
2012,08,01,04,24,11.90
2012,08,01,04,25,11.90
2012,08,01,04,26,11.90
2012,08,01,04,27,11.90
2012,08,01,04,28,11.90
2012,08,01,04,29,11.90
2012,08,01,04,30,11.90
2012,08,01,04,31,11.90
2012,08,01,04,32,11.90
2012,08,01,04,33,11.80
2012,08,01,04,34,11.80
2012,08,01,04,35,11.80
2012,08,01,04,36,11.80
2012,08,01,04,37,11.80
2012,08,01,04,38,11.80
2012,08,01,04,39,11.80
2012,08,01,04,40,11.80
2012,08,01,04,41,11.70
2012,08,01,04,42,11.70
2012,08,01,04,43,11.70
2012,08,01,04,44,11.70
2012,08,01,04,45,11.80
2012,08,01,04,46,11.70
2012,08,01,04,47,11.70
2012,08,01,04,48,11.70
2012,08,01,04,49,11.70
2012,08,01,04,50,11.70
2012,08,01,04,51,11.70
2012,08,01,04,52,11.70
2012,08,01,04,53,11.70
2012,08,01,04,54,11.70
2012,08,01,04,55,11.70
2012,08,01,04,56,11.70
2012,08,01,04,57,11.70
2012,08,01,04,58,11.60
2012,08,01,04,59,11.60
2012,08,01,05,00,11.60
2012,08,01,05,01,11.60
2012,08,01,05,02,11.60
2012,08,01,05,03,11.60
2012,08,01,05,04,11.60
2012,08,01,05,05,11.60
2012,08,01,05,06,11.60
2012,08,01,05,07,11.60
2012,08,01,05,08,11.60
2012,08,01,05,09,11.60
2012,08,01,05,10,11.60
2012,08,01,05,11,11.60
2012,08,01,05,12,11.60
2012,08,01,05,13,11.60
2012,08,01,05,14,11.60
2012,08,01,05,15,11.60
2012,08,01,05,16,11.60
2012,08,01,05,17,11.50
2012,08,01,05,18,11.50
2012,08,01,05,19,11.50
2012,08,01,05,20,11.50
2012,08,01,05,21,11.50
2012,08,01,05,22,11.60
2012,08,01,05,23,11.60
2012,08,01,05,24,11.50
2012,08,01,05,25,11.50
2012,08,01,05,26,11.50
2012,08,01,05,27,11.50
2012,08,01,05,28,11.50
2012,08,01,05,29,11.50
2012,08,01,05,30,11.50
2012,08,01,05,31,11.40
2012,08,01,05,32,11.40
2012,08,01,05,33,11.40
2012,08,01,05,34,11.40
2012,08,01,05,35,11.40
2012,08,01,05,36,11.40
2012,08,01,05,37,11.40
2012,08,01,05,38,11.30
2012,08,01,05,39,11.30
2012,08,01,05,40,11.30
2012,08,01,05,41,11.30
2012,08,01,05,42,11.30
2012,08,01,05,43,11.30
2012,08,01,05,44,11.30
2012,08,01,05,45,11.30
2012,08,01,05,46,11.30
2012,08,01,05,47,11.30
2012,08,01,05,48,11.20
2012,08,01,05,49,11.20
2012,08,01,05,50,11.20
2012,08,01,05,51,11.20
2012,08,01,05,52,11.20
2012,08,01,05,53,11.10
2012,08,01,05,54,11.10
2012,08,01,05,55,11.10
2012,08,01,05,56,11.10
2012,08,01,05,57,11.10
2012,08,01,05,58,11.10
2012,08,01,05,59,11.00
2012,08,01,06,00,11.10
2012,08,01,06,01,11.10
2012,08,01,06,02,11.10
2012,08,01,06,03,11.10
2012,08,01,06,04,11.10
2012,08,01,06,05,11.10
2012,08,01,06,06,11.10
2012,08,01,06,07,11.10
2012,08,01,06,08,11.10
2012,08,01,06,09,11.10
2012,08,01,06,10,11.10
2012,08,01,06,11,11.10
2012,08,01,06,12,11.10
2012,08,01,06,13,11.10
2012,08,01,06,14,11.10
2012,08,01,06,15,11.10
2012,08,01,06,16,11.10
2012,08,01,06,17,11.10
2012,08,01,06,18,11.20
2012,08,01,06,19,11.20
2012,08,01,06,20,11.20
2012,08,01,06,21,11.20
2012,08,01,06,22,11.20
2012,08,01,06,23,11.20
2012,08,01,06,24,11.30
2012,08,01,06,25,11.30
2012,08,01,06,26,11.30
2012,08,01,06,27,11.30
2012,08,01,06,28,11.30
2012,08,01,06,29,11.30
2012,08,01,06,30,11.30
2012,08,01,06,31,11.40
2012,08,01,06,32,11.40
2012,08,01,06,33,11.50
2012,08,01,06,34,11.50
2012,08,01,06,35,11.60
2012,08,01,06,36,11.60
2012,08,01,06,37,11.70
2012,08,01,06,38,11.70
2012,08,01,06,39,11.70
2012,08,01,06,40,11.70
2012,08,01,06,41,11.70
2012,08,01,06,42,11.70
2012,08,01,06,43,11.80
2012,08,01,06,44,11.80
2012,08,01,06,45,11.80
2012,08,01,06,46,11.80
2012,08,01,06,47,11.80
2012,08,01,06,48,11.90
2012,08,01,06,49,11.90
2012,08,01,06,50,11.90
2012,08,01,06,51,12.00
2012,08,01,06,52,12.00
2012,08,01,06,53,12.10
2012,08,01,06,54,12.10
2012,08,01,06,55,12.10
2012,08,01,06,56,12.20
2012,08,01,06,57,12.20
2012,08,01,06,58,12.20
2012,08,01,06,59,12.30
2012,08,01,07,00,12.30
2012,08,01,07,01,12.30
2012,08,01,07,02,12.40
2012,08,01,07,03,12.50
2012,08,01,07,04,12.60
2012,08,01,07,05,12.60
2012,08,01,07,06,12.70
2012,08,01,07,07,12.80
2012,08,01,07,08,12.80
2012,08,01,07,09,12.90
2012,08,01,07,10,13.00
2012,08,01,07,11,13.10
2012,08,01,07,12,13.20
2012,08,01,07,13,13.30
2012,08,01,07,14,13.40
2012,08,01,07,15,13.50
2012,08,01,07,16,13.60
2012,08,01,07,17,13.70
2012,08,01,07,18,13.80
2012,08,01,07,19,13.90
2012,08,01,07,20,13.90
2012,08,01,07,21,14.00
2012,08,01,07,22,14.00
2012,08,01,07,23,14.10
2012,08,01,07,24,14.10
2012,08,01,07,25,14.10
2012,08,01,07,26,14.10
2012,08,01,07,27,14.20
2012,08,01,07,28,14.20
2012,08,01,07,29,14.30
2012,08,01,07,30,14.40
2012,08,01,07,31,14.50
2012,08,01,07,32,14.60
2012,08,01,07,33,14.70
2012,08,01,07,34,14.80
2012,08,01,07,35,15.00
2012,08,01,07,36,15.00
2012,08,01,07,37,15.10
2012,08,01,07,38,15.20
2012,08,01,07,39,15.30
2012,08,01,07,40,15.50
2012,08,01,07,41,15.50
2012,08,01,07,42,15.60
2012,08,01,07,43,15.70
2012,08,01,07,44,15.70
2012,08,01,07,45,15.80
2012,08,01,07,46,15.80
2012,08,01,07,47,15.80
2012,08,01,07,48,15.90
2012,08,01,07,49,15.90
2012,08,01,07,50,16.00
2012,08,01,07,51,16.10
2012,08,01,07,52,16.10
2012,08,01,07,53,16.20
2012,08,01,07,54,16.30
2012,08,01,07,55,16.30
2012,08,01,07,56,16.40
2012,08,01,07,57,16.50
2012,08,01,07,58,16.50
2012,08,01,07,59,16.60
2012,08,01,08,00,16.70
2012,08,01,08,01,16.70
2012,08,01,08,02,16.70
2012,08,01,08,03,16.70
2012,08,01,08,04,16.70
2012,08,01,08,05,16.70
2012,08,01,08,06,16.70
2012,08,01,08,07,16.80
2012,08,01,08,08,16.80
2012,08,01,08,09,16.90
2012,08,01,08,10,16.90
2012,08,01,08,11,16.90
2012,08,01,08,12,16.90
2012,08,01,08,13,17.00
2012,08,01,08,14,17.00
2012,08,01,08,15,17.10
2012,08,01,08,16,17.10
2012,08,01,08,17,17.10
2012,08,01,08,18,17.20
2012,08,01,08,19,17.30
2012,08,01,08,20,17.30
2012,08,01,08,21,17.40
2012,08,01,08,22,17.40
2012,08,01,08,23,17.50
2012,08,01,08,24,17.50
2012,08,01,08,25,17.50
2012,08,01,08,26,17.50
2012,08,01,08,27,17.60
2012,08,01,08,28,17.60
2012,08,01,08,29,17.60
2012,08,01,08,30,17.60
2012,08,01,08,31,17.60
2012,08,01,08,32,17.60
2012,08,01,08,33,17.60
2012,08,01,08,34,17.70
2012,08,01,08,35,17.80
2012,08,01,08,36,17.80
2012,08,01,08,37,17.80
2012,08,01,08,38,17.80
2012,08,01,08,39,17.90
2012,08,01,08,40,17.90
2012,08,01,08,41,17.80
2012,08,01,08,42,17.80
2012,08,01,08,43,17.60
2012,08,01,08,44,17.60
2012,08,01,08,45,17.50
2012,08,01,08,46,17.40
2012,08,01,08,47,17.30
2012,08,01,08,48,17.30
2012,08,01,08,49,17.30
2012,08,01,08,50,17.30
2012,08,01,08,51,17.40
2012,08,01,08,52,17.40
2012,08,01,08,53,17.50
2012,08,01,08,54,17.60
2012,08,01,08,55,17.60
2012,08,01,08,56,17.60
2012,08,01,08,57,17.70
2012,08,01,08,58,17.70
2012,08,01,08,59,17.80
2012,08,01,09,00,17.80
2012,08,01,09,01,17.90
2012,08,01,09,02,18.00
2012,08,01,09,03,18.10
2012,08,01,09,04,18.20
2012,08,01,09,05,18.30
2012,08,01,09,06,18.40
2012,08,01,09,07,18.40
2012,08,01,09,08,18.40
2012,08,01,09,09,18.40
2012,08,01,09,10,18.30
2012,08,01,09,11,18.30
2012,08,01,09,12,18.30
2012,08,01,09,13,18.30
2012,08,01,09,14,18.30
2012,08,01,09,15,18.30
2012,08,01,09,16,18.30
2012,08,01,09,17,18.40
2012,08,01,09,18,18.40
2012,08,01,09,19,18.50
2012,08,01,09,20,18.60
2012,08,01,09,21,18.60
2012,08,01,09,22,18.60
2012,08,01,09,23,18.60
2012,08,01,09,24,18.60
2012,08,01,09,25,18.70
2012,08,01,09,26,18.70
2012,08,01,09,27,18.80
2012,08,01,09,28,18.80
2012,08,01,09,29,18.90
2012,08,01,09,30,19.00
2012,08,01,09,31,19.10
2012,08,01,09,32,19.10
2012,08,01,09,33,19.20
2012,08,01,09,34,19.20
2012,08,01,09,35,19.20
2012,08,01,09,36,19.20
2012,08,01,09,37,19.30
2012,08,01,09,38,19.30
2012,08,01,09,39,19.30
2012,08,01,09,40,19.30
2012,08,01,09,41,19.30
2012,08,01,09,42,19.30
2012,08,01,09,43,19.20
2012,08,01,09,44,19.20
2012,08,01,09,45,19.20
2012,08,01,09,46,19.20
2012,08,01,09,47,19.20
2012,08,01,09,48,19.20
2012,08,01,09,49,19.10
2012,08,01,09,50,19.10
2012,08,01,09,51,19.00
2012,08,01,09,52,19.00
2012,08,01,09,53,19.10
2012,08,01,09,54,19.00
2012,08,01,09,55,18.90
2012,08,01,09,56,18.80
2012,08,01,09,57,18.70
2012,08,01,09,58,18.70
2012,08,01,09,59,18.70
2012,08,01,10,00,18.80
2012,08,01,10,01,18.90
2012,08,01,10,02,19.00
2012,08,01,10,03,19.10
2012,08,01,10,04,19.10
2012,08,01,10,05,19.10
2012,08,01,10,06,19.20
2012,08,01,10,07,19.20
2012,08,01,10,08,19.20
2012,08,01,10,09,19.30
2012,08,01,10,10,19.30
2012,08,01,10,11,19.40
2012,08,01,10,12,19.40
2012,08,01,10,13,19.40
2012,08,01,10,14,19.40
2012,08,01,10,15,19.50
2012,08,01,10,16,19.50
2012,08,01,10,17,19.50
2012,08,01,10,18,19.40
2012,08,01,10,19,19.40
2012,08,01,10,20,19.40
2012,08,01,10,21,19.40
2012,08,01,10,22,19.50
2012,08,01,10,23,19.60
2012,08,01,10,24,19.70
2012,08,01,10,25,19.70
2012,08,01,10,26,19.80
2012,08,01,10,27,19.90
2012,08,01,10,28,19.90
2012,08,01,10,29,20.00
2012,08,01,10,30,20.00
2012,08,01,10,31,20.00
2012,08,01,10,32,20.10
2012,08,01,10,33,20.10
2012,08,01,10,34,20.10
2012,08,01,10,35,20.10
2012,08,01,10,36,20.20
2012,08,01,10,37,20.20
2012,08,01,10,38,20.10
2012,08,01,10,39,20.00
2012,08,01,10,40,20.00
2012,08,01,10,41,19.80
2012,08,01,10,42,19.70
2012,08,01,10,43,19.50
2012,08,01,10,44,19.40
2012,08,01,10,45,19.40
2012,08,01,10,46,19.30
2012,08,01,10,47,19.20
2012,08,01,10,48,19.20
2012,08,01,10,49,19.20
2012,08,01,10,50,19.10
2012,08,01,10,51,19.00
2012,08,01,10,52,18.90
2012,08,01,10,53,18.90
2012,08,01,10,54,18.80
2012,08,01,10,55,18.80
2012,08,01,10,56,18.80
2012,08,01,10,57,19.00
2012,08,01,10,58,19.10
2012,08,01,10,59,19.40
2012,08,01,11,00,19.50
2012,08,01,11,01,19.60
2012,08,01,11,02,19.60
2012,08,01,11,03,19.60
2012,08,01,11,04,19.60
2012,08,01,11,05,19.60
2012,08,01,11,06,19.50
2012,08,01,11,07,19.50
2012,08,01,11,08,19.40
2012,08,01,11,09,19.40
2012,08,01,11,10,19.40
2012,08,01,11,11,19.40
2012,08,01,11,12,19.30
2012,08,01,11,13,19.40
2012,08,01,11,14,19.40
2012,08,01,11,15,19.40
2012,08,01,11,16,19.30
2012,08,01,11,17,19.30
2012,08,01,11,18,19.40
2012,08,01,11,19,19.40
2012,08,01,11,20,19.40
2012,08,01,11,21,19.40
2012,08,01,11,22,19.40
2012,08,01,11,23,19.40
2012,08,01,11,24,19.40
2012,08,01,11,25,19.40
2012,08,01,11,26,19.50
2012,08,01,11,27,19.50
2012,08,01,11,28,19.60
2012,08,01,11,29,19.70
2012,08,01,11,30,19.80
2012,08,01,11,31,19.90
2012,08,01,11,32,19.80
2012,08,01,11,33,19.80
2012,08,01,11,34,19.70
2012,08,01,11,35,19.60
2012,08,01,11,36,19.60
2012,08,01,11,37,19.60
2012,08,01,11,38,19.60
2012,08,01,11,39,19.60
2012,08,01,11,40,19.70
2012,08,01,11,41,19.70
2012,08,01,11,42,19.70
2012,08,01,11,43,19.70
2012,08,01,11,44,19.80
2012,08,01,11,45,19.90
2012,08,01,11,46,20.00
2012,08,01,11,47,20.00
2012,08,01,11,48,20.10
2012,08,01,11,49,20.00
2012,08,01,11,50,20.10
2012,08,01,11,51,20.20
2012,08,01,11,52,20.40
2012,08,01,11,53,20.50
2012,08,01,11,54,20.60
2012,08,01,11,55,20.70
2012,08,01,11,56,20.70
2012,08,01,11,57,20.70
2012,08,01,11,58,20.70
2012,08,01,11,59,20.80
2012,08,01,12,00,20.80
2012,08,01,12,01,20.80
2012,08,01,12,02,20.80
2012,08,01,12,03,20.70
2012,08,01,12,04,20.60
2012,08,01,12,05,20.60
2012,08,01,12,06,20.70
2012,08,01,12,07,20.70
2012,08,01,12,08,20.70
2012,08,01,12,09,20.70
2012,08,01,12,10,20.60
2012,08,01,12,11,20.60
2012,08,01,12,12,20.60
2012,08,01,12,13,20.60
2012,08,01,12,14,20.70
2012,08,01,12,15,20.80
2012,08,01,12,16,20.90
2012,08,01,12,17,20.90
2012,08,01,12,18,20.90
2012,08,01,12,19,21.00
2012,08,01,12,20,21.10
2012,08,01,12,21,21.20
2012,08,01,12,22,21.10
2012,08,01,12,23,21.00
2012,08,01,12,24,20.90
2012,08,01,12,25,20.90
2012,08,01,12,26,20.80
2012,08,01,12,27,20.90
2012,08,01,12,28,20.90
2012,08,01,12,29,20.90
2012,08,01,12,30,20.90
2012,08,01,12,31,20.90
2012,08,01,12,32,20.80
2012,08,01,12,33,20.90
2012,08,01,12,34,20.90
2012,08,01,12,35,20.90
2012,08,01,12,36,21.00
2012,08,01,12,37,21.00
2012,08,01,12,38,21.10
2012,08,01,12,39,21.20
2012,08,01,12,40,21.20
2012,08,01,12,41,21.30
2012,08,01,12,42,21.40
2012,08,01,12,43,21.40
2012,08,01,12,44,21.40
2012,08,01,12,45,21.50
2012,08,01,12,46,21.50
2012,08,01,12,47,21.40
2012,08,01,12,48,21.40
2012,08,01,12,49,21.40
2012,08,01,12,50,21.30
2012,08,01,12,51,21.20
2012,08,01,12,52,21.10
2012,08,01,12,53,21.00
2012,08,01,12,54,21.00
2012,08,01,12,55,21.00
2012,08,01,12,56,21.00
2012,08,01,12,57,21.10
2012,08,01,12,58,21.10
2012,08,01,12,59,21.30
2012,08,01,13,00,21.40
2012,08,01,13,01,21.40
2012,08,01,13,02,21.40
2012,08,01,13,03,21.40
2012,08,01,13,04,21.40
2012,08,01,13,05,21.40
2012,08,01,13,06,21.50
2012,08,01,13,07,21.50
2012,08,01,13,08,21.50
2012,08,01,13,09,21.40
2012,08,01,13,10,21.30
2012,08,01,13,11,21.30
2012,08,01,13,12,21.30
2012,08,01,13,13,21.20
2012,08,01,13,14,21.20
2012,08,01,13,15,21.20
2012,08,01,13,16,21.30
2012,08,01,13,17,21.30
2012,08,01,13,18,21.40
2012,08,01,13,19,21.40
2012,08,01,13,20,21.60
2012,08,01,13,21,21.70
2012,08,01,13,22,21.70
2012,08,01,13,23,21.70
2012,08,01,13,24,21.70
2012,08,01,13,25,21.60
2012,08,01,13,26,21.50
2012,08,01,13,27,21.40
2012,08,01,13,28,21.40
2012,08,01,13,29,21.30
2012,08,01,13,30,21.40
2012,08,01,13,31,21.40
2012,08,01,13,32,21.40
2012,08,01,13,33,21.40
2012,08,01,13,34,21.40
2012,08,01,13,35,21.40
2012,08,01,13,36,21.50
2012,08,01,13,37,21.60
2012,08,01,13,38,21.70
2012,08,01,13,39,21.70
2012,08,01,13,40,21.80
2012,08,01,13,41,21.90
2012,08,01,13,42,21.90
2012,08,01,13,43,22.00
2012,08,01,13,44,22.10
2012,08,01,13,45,22.00
2012,08,01,13,46,21.90
2012,08,01,13,47,21.80
2012,08,01,13,48,21.80
2012,08,01,13,49,21.70
2012,08,01,13,50,21.70
2012,08,01,13,51,21.70
2012,08,01,13,52,21.70
2012,08,01,13,53,21.80
2012,08,01,13,54,21.80
2012,08,01,13,55,21.80
2012,08,01,13,56,21.80
2012,08,01,13,57,21.80
2012,08,01,13,58,21.80
2012,08,01,13,59,21.80
2012,08,01,14,00,21.80
2012,08,01,14,01,21.90
2012,08,01,14,02,21.90
2012,08,01,14,03,22.00
2012,08,01,14,04,22.10
2012,08,01,14,05,22.20
2012,08,01,14,06,22.20
2012,08,01,14,07,22.30
2012,08,01,14,08,22.20
2012,08,01,14,09,22.30
2012,08,01,14,10,22.30
2012,08,01,14,11,22.30
2012,08,01,14,12,22.40
2012,08,01,14,13,22.40
2012,08,01,14,14,22.40
2012,08,01,14,15,22.40
2012,08,01,14,16,22.40
2012,08,01,14,17,22.50
2012,08,01,14,18,22.50
2012,08,01,14,19,22.60
2012,08,01,14,20,22.70
2012,08,01,14,21,22.70
2012,08,01,14,22,22.80
2012,08,01,14,23,22.80
2012,08,01,14,24,22.90
2012,08,01,14,25,22.90
2012,08,01,14,26,23.00
2012,08,01,14,27,23.10
2012,08,01,14,28,23.10
2012,08,01,14,29,23.10
2012,08,01,14,30,23.10
2012,08,01,14,31,23.00
2012,08,01,14,32,23.00
2012,08,01,14,33,23.00
2012,08,01,14,34,23.00
2012,08,01,14,35,23.10
2012,08,01,14,36,23.20
2012,08,01,14,37,23.20
2012,08,01,14,38,23.20
2012,08,01,14,39,23.20
2012,08,01,14,40,23.20
2012,08,01,14,41,23.30
2012,08,01,14,42,23.30
2012,08,01,14,43,23.40
2012,08,01,14,44,23.40
2012,08,01,14,45,23.40
2012,08,01,14,46,23.40
2012,08,01,14,47,23.40
2012,08,01,14,48,23.30
2012,08,01,14,49,23.10
2012,08,01,14,50,23.10
2012,08,01,14,51,23.00
2012,08,01,14,52,23.00
2012,08,01,14,53,22.90
2012,08,01,14,54,23.00
2012,08,01,14,55,23.00
2012,08,01,14,56,22.90
2012,08,01,14,57,22.90
2012,08,01,14,58,22.90
2012,08,01,14,59,22.90
2012,08,01,15,00,22.90
2012,08,01,15,01,23.00
2012,08,01,15,02,23.00
2012,08,01,15,03,22.90
2012,08,01,15,04,22.90
2012,08,01,15,05,22.90
2012,08,01,15,06,23.00
2012,08,01,15,07,23.00
2012,08,01,15,08,23.00
2012,08,01,15,09,23.10
2012,08,01,15,10,23.10
2012,08,01,15,11,23.20
2012,08,01,15,12,23.20
2012,08,01,15,13,23.20
2012,08,01,15,14,23.30
2012,08,01,15,15,23.30
2012,08,01,15,16,23.30
2012,08,01,15,17,23.30
2012,08,01,15,18,23.10
2012,08,01,15,19,23.00
2012,08,01,15,20,22.90
2012,08,01,15,21,22.80
2012,08,01,15,22,22.80
2012,08,01,15,23,22.80
2012,08,01,15,24,22.80
2012,08,01,15,25,22.70
2012,08,01,15,26,22.60
2012,08,01,15,27,22.50
2012,08,01,15,28,22.40
2012,08,01,15,29,22.50
2012,08,01,15,30,22.60
2012,08,01,15,31,22.70
2012,08,01,15,32,22.80
2012,08,01,15,33,22.90
2012,08,01,15,34,23.00
2012,08,01,15,35,23.10
2012,08,01,15,36,23.10
2012,08,01,15,37,23.10
2012,08,01,15,38,23.10
2012,08,01,15,39,23.00
2012,08,01,15,40,23.10
2012,08,01,15,41,22.90
2012,08,01,15,42,22.80
2012,08,01,15,43,22.90
2012,08,01,15,44,22.90
2012,08,01,15,45,22.90
2012,08,01,15,46,23.00
2012,08,01,15,47,23.00
2012,08,01,15,48,23.10
2012,08,01,15,49,23.10
2012,08,01,15,50,23.30
2012,08,01,15,51,23.40
2012,08,01,15,52,23.40
2012,08,01,15,53,23.40
2012,08,01,15,54,23.40
2012,08,01,15,55,23.40
2012,08,01,15,56,23.30
2012,08,01,15,57,23.20
2012,08,01,15,58,23.20
2012,08,01,15,59,23.20
2012,08,01,16,00,23.30
2012,08,01,16,01,23.40
2012,08,01,16,02,23.50
2012,08,01,16,03,23.50
2012,08,01,16,04,23.40
2012,08,01,16,05,23.40
2012,08,01,16,06,23.30
2012,08,01,16,07,23.30
2012,08,01,16,08,23.30
2012,08,01,16,09,23.30
2012,08,01,16,10,23.30
2012,08,01,16,11,23.30
2012,08,01,16,12,23.30
2012,08,01,16,13,23.30
2012,08,01,16,14,23.30
2012,08,01,16,15,23.20
2012,08,01,16,16,23.20
2012,08,01,16,17,23.20
2012,08,01,16,18,23.20
2012,08,01,16,19,23.20
2012,08,01,16,20,23.20
2012,08,01,16,21,23.10
2012,08,01,16,22,23.00
2012,08,01,16,23,23.00
2012,08,01,16,24,22.90
2012,08,01,16,25,22.90
2012,08,01,16,26,22.80
2012,08,01,16,27,22.60
2012,08,01,16,28,22.50
2012,08,01,16,29,22.40
2012,08,01,16,30,22.30
2012,08,01,16,31,22.20
2012,08,01,16,32,22.20
2012,08,01,16,33,22.20
2012,08,01,16,34,22.20
2012,08,01,16,35,22.20
2012,08,01,16,36,22.20
2012,08,01,16,37,22.20
2012,08,01,16,38,22.20
2012,08,01,16,39,22.10
2012,08,01,16,40,22.00
2012,08,01,16,41,21.90
2012,08,01,16,42,21.80
2012,08,01,16,43,21.80
2012,08,01,16,44,21.70
2012,08,01,16,45,21.70
2012,08,01,16,46,21.60
2012,08,01,16,47,21.60
2012,08,01,16,48,21.50
2012,08,01,16,49,21.50
2012,08,01,16,50,21.40
2012,08,01,16,51,21.30
2012,08,01,16,52,21.20
2012,08,01,16,53,21.20
2012,08,01,16,54,21.20
2012,08,01,16,55,21.20
2012,08,01,16,56,21.20
2012,08,01,16,57,21.20
2012,08,01,16,58,21.20
2012,08,01,16,59,21.30
2012,08,01,17,00,21.30
2012,08,01,17,01,21.40
2012,08,01,17,02,21.40
2012,08,01,17,03,21.50
2012,08,01,17,04,21.50
2012,08,01,17,05,21.60
2012,08,01,17,06,21.60
2012,08,01,17,07,21.60
2012,08,01,17,08,21.60
2012,08,01,17,09,21.50
2012,08,01,17,10,21.50
2012,08,01,17,11,21.50
2012,08,01,17,12,21.50
2012,08,01,17,13,21.40
2012,08,01,17,14,21.40
2012,08,01,17,15,21.40
2012,08,01,17,16,21.40
2012,08,01,17,17,21.40
2012,08,01,17,18,21.40
2012,08,01,17,19,21.40
2012,08,01,17,20,21.50
2012,08,01,17,21,21.60